This is the latest recevied weather packets stored in our database for station/object KM7BEO. If no packets are shown the sender has not sent any weather packets the latest 10 day(s).
| Time | Temp. | Humidity | Pressure | Rain* | Wind** | Luminosity | Snow |
|---|---|---|---|---|---|---|---|
| 1778001101 | 12.78° C | 87% | 1015.2 hPa | 0 mm | - | 99 W/m² | - |
| 1778000798 | 12.78° C | 87% | 1015.3 hPa | 0 mm | - | 99 W/m² | - |
| 1778000495 | 12.78° C | 87% | 1015.2 hPa | 0 mm | - | 94 W/m² | - |
| 1778000195 | 12.78° C | 87% | 1015.2 hPa | 0 mm | - | 87 W/m² | - |
| 1777999891 | 12.78° C | 87% | 1015.4 hPa | 0 mm | - | 95 W/m² | - |
| 1777999587 | 12.78° C | 88% | 1015.3 hPa | 0 mm | - | 84 W/m² | - |
| 1777999285 | 12.78° C | 88% | 1015.2 hPa | 0 mm | - | 78 W/m² | - |
| 1777998983 | 12.78° C | 88% | 1015.4 hPa | 0 mm | - | 72 W/m² | - |
| 1777998680 | 12.78° C | 88% | 1015.1 hPa | 0 mm | - | 72 W/m² | - |
| 1777998377 | 12.78° C | 88% | 1015.5 hPa | 0 mm | - | 71 W/m² | - |
| 1777998075 | 12.78° C | 88% | 1015 hPa | 0 mm | - | 71 W/m² | - |
| 1777997772 | 12.78° C | 88% | 1015.2 hPa | 0 mm | - | 65 W/m² | - |
| 1777997469 | 12.78° C | 88% | 1015.2 hPa | 0 mm | - | 62 W/m² | - |
| 1777997167 | 12.78° C | 89% | 1015.2 hPa | 0 mm | - | 61 W/m² | - |
| 1777996864 | 12.78° C | 89% | 1015 hPa | 0 mm | - | 59 W/m² | - |
| 1777996560 | 12.22° C | 89% | 1015 hPa | 0 mm | - | 56 W/m² | - |
| 1777996256 | 12.22° C | 89% | 1015.2 hPa | 0 mm | - | 55 W/m² | - |
| 1777995952 | 12.22° C | 89% | 1015.1 hPa | 0 mm | - | 52 W/m² | - |
| 1777995649 | 12.22° C | 90% | 1014.8 hPa | 0 mm | - | 47 W/m² | - |
| 1777995346 | 12.22° C | 90% | 1014.9 hPa | 0 mm | - | 48 W/m² | - |
| 1777995043 | 12.22° C | 90% | 1015 hPa | 0 mm | - | 45 W/m² | - |
| 1777994740 | 12.22° C | 90% | 1015 hPa | 0 mm | - | 40 W/m² | - |
| 1777994436 | 12.22° C | 90% | 1014.8 hPa | 0 mm | - | 40 W/m² | - |
| 1777994131 | 12.22° C | 91% | 1014.9 hPa | 0 mm | - | 36 W/m² | - |
| 1777993829 | 12.22° C | 91% | 1014.7 hPa | 0 mm | - | 38 W/m² | - |
* Rain latest hour (hover to see other rain measurements)
** Current wind speed in m/s (hover to see current wind gust speed)